Overview Statistics Trail Chart Weather Telemetry Raw packets
 

This is the latest recevied weather packets stored in our database for station/object OE-11190. If no packets are shown the sender has not sent any weather packets the latest 10 day(s).

<< 12 13 14 15 16 17 18 >>
Time Temp. Humidity Pressure Rain* Wind** Luminosity Snow
1788188108 30° C 34% 1013.3 hPa 0 mm - 470 W/m² -
1788187508 29.44° C 34% 1013.5 hPa 0 mm - 478 W/m² -
1788186908 29.44° C 34% 1013.6 hPa 0 mm - 493 W/m² -
1788186308 30° C 34% 1013.6 hPa 0 mm - 516 W/m² -
1788185708 29.44° C 34% 1013.7 hPa 0 mm - 538 W/m² -
1788185108 29.44° C 34% 1013.9 hPa 0 mm - 561 W/m² -
1788184508 29.44° C 33% 1013.9 hPa 0 mm - 584 W/m² -
1788183908 29.44° C 33% 1014 hPa 0 mm - 607 W/m² -
1788182708 30.56° C 31% 1013.9 hPa 0 mm - 637 W/m² -
1788182108 30° C 32% 1014.2 hPa 0 mm - 652 W/m² -
1788181508 30° C 32% 1014.1 hPa 0 mm - 667 W/m² -
1788180925 30° C 32% 1014.3 hPa 0 mm - 682 W/m² -
1788180081 30.56° C 30% 1014.4 hPa 0 mm - 698 W/m² -
1788179708 30° C 30% 1014.2 hPa 0 mm - 766 W/m² -
1788178281 31.11° C 29% 1014 hPa 0 mm - 751 W/m² -
1788177908 30.56° C 30% 1014 hPa 0 mm - 705 W/m² -
1788177307 30° C 31% 1014 hPa 0 mm - 417 W/m² -
1788176481 30° C 34% 1014.1 hPa 0 mm - 470 W/m² -
1788176108 30° C 33% 1014 hPa 0 mm - 781 W/m² -
1788175508 30° C 34% 1014.1 hPa 0 mm - 569 W/m² -
1788174681 28.89° C 37% 1014.2 hPa 0 mm - 296 W/m² -
1788174308 29.44° C 38% 1014.1 hPa 0 mm - 478 W/m² -
1788173708 28.89° C 38% 1014.1 hPa 0 mm - 296 W/m² -
1788172880 29.44° C 37% 1014.1 hPa 0 mm - 235 W/m² -
1788171908 30° C 37% 1013.7 hPa 0 mm - 758 W/m² -

* Rain latest hour (hover to see other rain measurements)
** Current wind speed in m/s (hover to see current wind gust speed)